• In Netherlands
  • List of Countries
  • For 7 days
  • Water Temperature
  • Satellite Maps
  • Weather Map
  • Weather Widgets
  • user-avatar
    Login

    Hourly Weather Jaú

    Today, 25 April, Tuesday

    Time Temperature Precipitation Wind Pressure Humidity
    00:00 +30°C° 0 mm 3 mps 755 mmHg 27%
    01:00 +30°C° 0 mm 3 mps 755 mmHg 27%
    02:00 +30°C° 0 mm 3 mps 754 mmHg 27%
    03:00 +30°C° 0 mm 4 mps 754 mmHg 30%
    04:00 +30°C° 0 mm 3 mps 754 mmHg 31%
    05:00 +30°C° 0 mm 3 mps 755 mmHg 32%
    06:00 +30°C° 0 mm 3 mps 755 mmHg 33%
    07:00 +31°C° 0 mm 3 mps 755 mmHg 29%
    08:00 +34°C° 0 mm 2 mps 755 mmHg 25%
    09:00 +35°C° 0 mm 1 mps 756 mmHg 21%
    10:00 +36°C° 0 mm 2 mps 756 mmHg 19%
    11:00 +37°C° 0 mm 2 mps 756 mmHg 17%
    12:00 +38°C° 0 mm 2 mps 756 mmHg 15%
    13:00 +38°C° 0 mm 4 mps 755 mmHg 17%
    14:00 +37°C° 0 mm 5 mps 755 mmHg 19%
    15:00 +38°C° 0 mm 6 mps 755 mmHg 21%
    16:00 +36°C° 0 mm 6 mps 755 mmHg 24%
    17:00 +34°C° 0 mm 6 mps 755 mmHg 28%
    18:00 +33°C° 0 mm 6 mps 755 mmHg 31%
    19:00 +32°C° 0 mm 5 mps 755 mmHg 32%
    20:00 +32°C° 0 mm 5 mps 756 mmHg 33%
    21:00 +32°C° 0 mm 5 mps 756 mmHg 34%
    22:00 +30°C° 0 mm 5 mps 756 mmHg 39%
    23:00 +29°C° 0 mm 5 mps 756 mmHg 44%

    Tomorrow, 26 April, Wednesday

    Time Temperature Precipitation Wind Pressure Humidity
    00:00 +29°C° 0 mm 5 mps 756 mmHg 49%
    01:00 +29°C° 0 mm 5 mps 756 mmHg 51%
    02:00 +28°C° 0 mm 5 mps 756 mmHg 52%
    03:00 +28°C° 0 mm 5 mps 756 mmHg 54%
    04:00 +28°C° 0 mm 6 mps 756 mmHg 54%
    05:00 +28°C° 0 mm 6 mps 756 mmHg 54%
    06:00 +28°C° 0 mm 6 mps 756 mmHg 54%
    07:00 +30°C° 0 mm 6 mps 757 mmHg 48%
    08:00 +32°C° 0 mm 7 mps 757 mmHg 42%
    09:00 +33°C° 0 mm 7 mps 757 mmHg 36%
    10:00 +34°C° 0 mm 7 mps 757 mmHg 32%
    11:00 +35°C° 0 mm 7 mps 757 mmHg 29%
    12:00 +36°C° 0 mm 7 mps 757 mmHg 26%
    13:00 +36°C° 0 mm 7 mps 757 mmHg 28%
    14:00 +35°C° 0 mm 7 mps 757 mmHg 29%
    15:00 +34°C° 0 mm 7 mps 756 mmHg 31%
    16:00 +33°C° 0 mm 7 mps 757 mmHg 33%
    17:00 +33°C° 0 mm 6 mps 757 mmHg 36%
    18:00 +32°C° 0 mm 6 mps 757 mmHg 38%
    19:00 +30°C° 0 mm 6 mps 757 mmHg 38%
    20:00 +30°C° 0 mm 5 mps 757 mmHg 38%
    21:00 +30°C° 0 mm 5 mps 757 mmHg 38%
    22:00 +30°C° 0 mm 5 mps 757 mmHg 37%
    23:00 +30°C° 0 mm 5 mps 757 mmHg 36%

    Day after tomorrow, 27 April, Thursday

    Time Temperature Precipitation Wind Pressure Humidity
    00:00 +29°C° 0 mm 5 mps 757 mmHg 35%
    01:00 +29°C° 0 mm 5 mps 757 mmHg 36%
    02:00 +29°C° 0 mm 5 mps 756 mmHg 37%
    03:00 +29°C° 0 mm 5 mps 756 mmHg 38%
    04:00 +29°C° 0 mm 5 mps 756 mmHg 40%
    05:00 +29°C° 0 mm 5 mps 757 mmHg 42%
    06:00 +29°C° 0 mm 6 mps 757 mmHg 43%
    07:00 +32°C° 0 mm 6 mps 757 mmHg 37%
    08:00 +33°C° 0 mm 6 mps 758 mmHg 32%
    09:00 +35°C° 0 mm 6 mps 758 mmHg 26%
    10:00 +36°C° 0 mm 6 mps 758 mmHg 23%
    11:00 +38°C° 0 mm 6 mps 757 mmHg 21%
    12:00 +38°C° 0 mm 6 mps 757 mmHg 19%
    13:00 +38°C° 0 mm 6 mps 757 mmHg 20%
    14:00 +38°C° 0 mm 7 mps 756 mmHg 20%
    15:00 +38°C° 0 mm 7 mps 756 mmHg 20%
    16:00 +36°C° 0 mm 7 mps 756 mmHg 24%
    17:00 +34°C° 0 mm 6 mps 756 mmHg 28%
    18:00 +33°C° 0 mm 5 mps 756 mmHg 32%
    19:00 +32°C° 0 mm 5 mps 757 mmHg 34%
    20:00 +32°C° 0 mm 4 mps 757 mmHg 36%
    21:00 +30°C° 0 mm 4 mps 757 mmHg 39%
    22:00 +30°C° 0 mm 4 mps 757 mmHg 39%
    23:00 +30°C° 0 mm 4 mps 757 mmHg 40%

    28 April, Friday

    Time Temperature Precipitation Wind Pressure Humidity
    00:00 +29°C° 0 mm 4 mps 757 mmHg 40%
    01:00 +29°C° 0 mm 4 mps 757 mmHg 39%
    02:00 +29°C° 0 mm 3 mps 756 mmHg 38%
    03:00 +29°C° 0 mm 3 mps 756 mmHg 37%
    04:00 +29°C° 0 mm 3 mps 756 mmHg 36%
    05:00 +30°C° 0 mm 3 mps 757 mmHg 36%
    06:00 +30°C° 0 mm 4 mps 757 mmHg 36%
    07:00 +32°C° 0 mm 4 mps 757 mmHg 33%
    08:00 +34°C° 0 mm 4 mps 757 mmHg 29%
    09:00 +35°C° 0 mm 4 mps 758 mmHg 26%
    10:00 +36°C° 0 mm 3 mps 757 mmHg 25%
    11:00 +37°C° 0 mm 3 mps 757 mmHg 24%
    12:00 +38°C° 0 mm 3 mps 757 mmHg 22%
    13:00 +38°C° 0 mm 3 mps 756 mmHg 22%
    14:00 +38°C° 0 mm 4 mps 756 mmHg 22%
    15:00 +38°C° 0 mm 4 mps 755 mmHg 22%
    16:00 +37°C° 0 mm 4 mps 755 mmHg 24%
    17:00 +36°C° 0 mm 3 mps 755 mmHg 26%
    18:00 +35°C° 0 mm 3 mps 755 mmHg 28%
    19:00 +35°C° 0 mm 3 mps 756 mmHg 28%
    20:00 +34°C° 0 mm 3 mps 756 mmHg 29%
    21:00 +34°C° 0 mm 2 mps 756 mmHg 29%
    22:00 +34°C° 0 mm 2 mps 756 mmHg 29%
    23:00 +32°C° 0 mm 2 mps 756 mmHg 28%

    29 April, Saturday

    Time Temperature Precipitation Wind Pressure Humidity
    00:00 +32°C° 0 mm 2 mps 755 mmHg 28%
    01:00 +32°C° 0 mm 2 mps 755 mmHg 29%
    02:00 +31°C° 0 mm 2 mps 755 mmHg 30%
    03:00 +30°C° 0 mm 2 mps 755 mmHg 32%
    04:00 +30°C° 0 mm 2 mps 755 mmHg 31%
    05:00 +31°C° 0 mm 2 mps 756 mmHg 31%
    06:00 +31°C° 0 mm 2 mps 756 mmHg 30%
    07:00 +32°C° 0 mm 2 mps 756 mmHg 28%
    08:00 +35°C° 0 mm 2 mps 757 mmHg 25%
    09:00 +36°C° 0 mm 2 mps 757 mmHg 23%
    10:00 +37°C° 0 mm 2 mps 757 mmHg 21%
    11:00 +37°C° 0 mm 1 mps 757 mmHg 19%
    12:00 +37°C° 0 mm 1 mps 756 mmHg 18%
    13:00 +39°C° 0 mm 2 mps 756 mmHg 17%
    14:00 +39°C° 0 mm 3 mps 756 mmHg 17%
    15:00 +40°C° 0 mm 3 mps 755 mmHg 16%
    16:00 +40°C° 0 mm 4 mps 755 mmHg 20%
    17:00 +39°C° 0 mm 5 mps 755 mmHg 23%
    18:00 +37°C° 0 mm 5 mps 755 mmHg 27%
    19:00 +36°C° 0 mm 5 mps 756 mmHg 28%
    20:00 +36°C° 0 mm 5 mps 756 mmHg 30%
    21:00 +35°C° 0 mm 5 mps 756 mmHg 31%
    22:00 +35°C° 0 mm 4 mps 756 mmHg 31%
    23:00 +34°C° 0 mm 3 mps 755 mmHg 31%

    30 April, Sunday

    Time Temperature Precipitation Wind Pressure Humidity
    00:00 +34°C° 0 mm 2 mps 755 mmHg 31%
    01:00 +32°C° 0 mm 2 mps 755 mmHg 31%
    02:00 +32°C° 0 mm 2 mps 755 mmHg 30%
    03:00 +32°C° 0 mm 2 mps 755 mmHg 30%
    04:00 +33°C° 0 mm 3 mps 755 mmHg 33%
    05:00 +33°C° 0 mm 3 mps 756 mmHg 36%
    06:00 +31°C° 0 mm 3 mps 756 mmHg 40%
    07:00 +34°C° 0 mm 3 mps 757 mmHg 36%
    08:00 +35°C° 0 mm 3 mps 757 mmHg 33%
    09:00 +36°C° 0 mm 2 mps 758 mmHg 29%
    10:00 +36°C° 0 mm 2 mps 757 mmHg 27%
    11:00 +37°C° 0 mm 3 mps 757 mmHg 25%
    12:00 +38°C° 0 mm 3 mps 757 mmHg 23%
    13:00 +38°C° 0 mm 3 mps 756 mmHg 22%
    14:00 +38°C° 0 mm 3 mps 756 mmHg 22%
    15:00 +38°C° 0 mm 3 mps 755 mmHg 21%
    16:00 +38°C° 0 mm 3 mps 755 mmHg 22%
    17:00 +37°C° 0 mm 3 mps 755 mmHg 23%
    18:00 +37°C° 0 mm 4 mps 755 mmHg 24%
    19:00 +36°C° 0 mm 3 mps 755 mmHg 25%
    20:00 +36°C° 0 mm 3 mps 756 mmHg 25%
    21:00 +36°C° 0 mm 2 mps 756 mmHg 26%
    22:00 +35°C° 0 mm 2 mps 755 mmHg 26%
    23:00 +35°C° 0 mm 2 mps 755 mmHg 25%
    Show more